Hourly Data Report for September 15, 2017

All times are specified in Local Standard Time (LST). Add 1 hour to adjust for Daylight Saving Time where and when it is observed.

KAMLOOPS A
BRITISH COLUMBIA

50°42'09.000" N
120°26'55.000" W
345.30 m
1163781
71887
YKA

Download Data

Hourly Data (September 2017)
Hourly Data Report for September 15, 2017
Temp Definition
°C
Dew Point Temp Definition
°C
Rel Hum Definition
%
Wind Dir Definition
10's deg

Wind Spd Definition
km/h
Visibility Definition
km
Stn Press Definition
kPa
Hmdx Definition


Wind Chill Definition


Weather Definition


TIME
00:00 Legend Double Dagger 10.0 -1.2 46 26 10 64.4 97.78     LegendNANA
01:00 Legend Double Dagger 9.2 -0.2 52 25 6 64.4 97.84     Clear
02:00 Legend Double Dagger 8.6 -0.1 54 36 2 64.4 97.87     LegendNANA
03:00 Legend Double Dagger 7.6 0.2 59 36 3 64.4 97.91     LegendNANA
04:00 Legend Double Dagger 7.2 -0.1 60 36 1 64.4 97.98     Clear
05:00 Legend Double Dagger 6.7 -0.5 60 36 3 64.4 98.01     LegendNANA
06:00 Legend Double Dagger 6.1 -0.9 61 36 1 64.4 98.07     LegendNANA
07:00 Legend Double Dagger 8.6 2.2 64 36 3 64.4 98.11     Clear
08:00 Legend Double Dagger 10.4 2.1 56 11 5 64.4 98.12     LegendNANA
09:00 Legend Double Dagger 11.9 1.3 48 16 5 64.4 98.10     LegendNANA
10:00 Legend Double Dagger 14.0 1.1 41 16 6 64.4 98.04     Clear
11:00 Legend Double Dagger 15.7 0.5 35 13 6 64.4 97.96     LegendNANA
12:00 Legend Double Dagger 18.2 -0.2 29 15 5 64.4 97.89     LegendNANA
13:00 Legend Double Dagger 20.8 -2.5 21 15 4 64.4 97.80     Clear
14:00 Legend Double Dagger 21.8 -2.0 20 13 9 64.4 97.72     LegendNANA
15:00 Legend Double Dagger 22.2 -2.7 19 14 7 64.4 97.65     LegendNANA
16:00 Legend Double Dagger 22.5 -2.2 19 12 8 64.4 97.61     Clear
17:00 Legend Double Dagger 22.1 -2.3 19 10 7 64.4 97.58     LegendNANA
18:00 Legend Double Dagger 19.4 1.1 29 11 5 64.4 97.55     LegendNANA
19:00 Legend Double Dagger 16.4 1.4 36 20 3 64.4 97.57     Mainly Clear
20:00 Legend Double Dagger 14.8 2.7 44 17 3 64.4 97.61     LegendNANA
21:00 Legend Double Dagger 12.9 2.2 48 13 4 64.4 97.63     LegendNANA
22:00 Legend Double Dagger 12.1 0.4 45 5 6 64.4 97.65     Clear
23:00 Legend Double Dagger 11.6 1.3 49 11 18 64.4 97.66     LegendNANA

Notes on Data Quality.

Legend

  • E = Estimated
  • M = Missing
  • NA = Not Available
  • ‡ = Partner data that is not subject to review by the National Climate Archives
Date modified: